Zurück zum Katalog

COSMOS 1275 DEB

AktivPO
NORAD 17620·DEBRIS·🇷🇺 Russia

Gestartet Jun 4, 1981 von Plesetsk Cosmodrome

Loading…

Nächste Überflüge (nächste 24 Stunden)

TLE

AktuellSource: Space-Track

Epoche: Sep 14, 2026, 19:25 UTC

1 17620U 81053KP  26257.80932488  .00004079  00000-0  12107-2 0  9990
2 17620  83.1710  33.1968 0018246 335.8835  24.1503 14.43013640126587

Verfolge COSMOS 1275 DEB in Echtzeit mit AllMySat

Download on the App Store